This is the latest recevied weather packets stored in our database for station/object YD2CLX-15. If no packets are shown the sender has not sent any weather packets the latest 10 day(s).
| Time | Temp. | Humidity | Pressure | Rain* | Wind** | Luminosity | Snow |
|---|---|---|---|---|---|---|---|
| 1788542139 | 11.11° C | 83% | 1019 hPa | 0 mm | - | - | - |
| 1788540339 | 13.33° C | 83% | 1019 hPa | 0 mm | - | - | - |
| 1788539440 | 14.44° C | 83% | 1019 hPa | 0 mm | - | - | - |
| 1788536739 | 11.11° C | 89% | 1019 hPa | 0 mm | - | - | - |
| 1788535838 | 12.22° C | 89% | 1019 hPa | 0 mm | - | - | - |
| 1788534939 | 13.33° C | 89% | 1018 hPa | 0 mm | - | - | - |
| 1788534040 | 14.44° C | 89% | 1019 hPa | 0 mm | - | - | - |
| 1788532238 | 10° C | 85% | 1019 hPa | 0 mm | - | - | - |
| 1788531339 | 11.11° C | 85% | 1018 hPa | 0 mm | - | - | - |
| 1788530441 | 12.22° C | 85% | 1019 hPa | 0 mm | - | - | - |
| 1788529539 | 13.33° C | 85% | 1018 hPa | 0 mm | - | - | - |
| 1788528639 | 14.44° C | 85% | 1018 hPa | 0 mm | - | - | - |
| 1788527739 | 15.56° C | 85% | 1018 hPa | 0 mm | - | - | - |
| 1788526840 | 16.67° C | 85% | 1018 hPa | 0 mm | - | - | - |
| 1788525039 | 11.11° C | 76% | 1018 hPa | 0 mm | - | - | - |
| 1788524138 | 12.22° C | 76% | 1017 hPa | 0 mm | - | - | - |
| 1788521438 | 15.56° C | 76% | 1017 hPa | 0 mm | - | - | - |
| 1788520539 | 16.67° C | 76% | 1015 hPa | 0 mm | - | - | - |
| 1788518739 | 18.89° C | 76% | 1015 hPa | 0 mm | - | - | - |
| 1788517839 | 20.56° C | 76% | 1015 hPa | 0 mm | - | - | - |
| 1788516939 | 16.11° C | 75% | 1014 hPa | 0 mm | - | - | - |
| 1788515138 | 18.33° C | 75% | 1014 hPa | 0 mm | - | - | - |
| 1788514239 | 19.44° C | 75% | 1014 hPa | 0 mm | - | - | - |
| 1788513339 | 20.56° C | 75% | 1013 hPa | 0 mm | - | - | - |
| 1788512439 | 18.33° C | 100% | 1013 hPa | 0 mm | - | - | - |
* Rain latest hour (hover to see other rain measurements)
** Current wind speed in m/s (hover to see current wind gust speed)